Tracking 31027 objects as of 19-Jul-2025
HD Live streaming from Space Station
objects crossing your sky now

OBJECT E

Track OBJECT E now!
10-day predictions


NORAD ID: 45915
Int'l Code: 2019-079E
Perigee: 502.2 km
Apogee: 746.7 km
Inclination: 97.7 °
Period: 97.0 minutes
Semi major axis: 6995 km
RCS: Unknown
Launch date: November 25, 2019
Source: Commonwealth of Independent States (former USSR) (CIS)
Launch site: PLESETSK MISSILE AND SPACE COMPLEX (PKMTR)
Your satellite tracking list
STARLINK-31009
Track 1 satellite(s)




NASA's NSSDC Master Catalog

Two Line Element Set (TLE):
1 45915U 19079E   25199.89058753  .00002562  00000-0  24150-3 0  9991
2 45915  97.6676 211.8460 0174799   5.4821 354.8253 14.83810322270197
Source of the keplerian elements: AFSPC